Location: *
(42.4833°N, 26.0000°E)
Time: 12:45:59
(UTC+00:00)

Daily predictions for brighter satellites

Satellite Brightness Start Highest point End
(mag) Time Altitude Azimuth Time Altitude Azimuth Time Altitude Azimuth
Cosmos 1455 Rocket 3.6 17:05:11 10° SSW 17:09:30 67° W 17:13:53 10° N
YAOGAN 1 3.3 17:06:31 10° S 17:10:47 60° W 17:15:05 10° NNW
CSL-04 Rocket 3.8 17:05:36 10° SSE 17:10:54 80° WSW 17:16:12 10° NNW
STARLINK-1121 3.7 17:06:49 10° NW 17:10:57 66° NE 17:15:03 10° ESE
USA 186 3.1 17:08:55 10° SE 17:11:39 23° ENE 17:14:19 10° NNE
Cosmos 1818 4.5 17:09:57 10° SSE 17:14:23 26° ESE 17:18:50 10° NE
STARLINK-1106 3.7 17:11:47 10° NW 17:15:55 71° NE 17:20:03 10° ESE
Cosmos 2315 Rocket 4.0 17:09:53 10° S 17:16:09 70° E 17:22:29 10° NNE
Cosmos 1626 Rocket 3.5 17:15:06 10° N 17:19:28 64° E 17:23:45 10° SSE
STARLINK-1112 3.6 17:16:46 10° NW 17:20:55 77° NE 17:25:04 10° ESE
CZ-2C R/B 3.4 17:17:05 10° SE 17:21:42 41° ENE 17:26:10 10° N
Resurs 01 Rocket 3.6 17:21:28 10° E 17:23:13 12° ENE 17:24:58 10° NE
Cosmos 1302 Rocket 4.3 17:19:11 10° NNW 17:24:27 73° WSW 17:29:43 10° S
STARLINK-1128 3.6 17:21:44 10° NW 17:25:54 84° NE 17:30:00 10° SE
FREGAT/IRIS 3.2 17:24:21 10° SE 17:26:49 31° ENE 17:29:17 10° N
SL-16 R/B 3.4 17:21:35 10° SW 17:27:02 48° WNW 17:32:31 10° NNE
Cosmos 292 Rocket 4.0 17:23:19 10° N 17:28:01 52° ENE 17:32:42 10° SE
Cosmos 1709 Rocket 4.0 17:21:56 10° N 17:28:09 88° W 17:34:15 10° S
Cosmos 1602 Rocket 3.6 17:25:14 10° N 17:29:40 64° E 17:34:01 10° SSE
STARLINK-1113 3.6 17:26:42 10° NW 17:30:52 90° S 17:34:46 11° SE
STARLINK-1119 3.6 17:31:43 10° NW 17:35:51 83° SW 17:39:35 13° SE
CZ-2C R/B 3.7 17:32:38 10° NE 17:36:32 21° E 17:40:23 10° SE
SJ-6B 3.4 17:32:55 10° SE 17:36:46 41° ENE 17:40:40 10° N
SL-8 R/B 3.9 17:32:48 10° WNW 17:37:33 64° NNE 17:41:30 15° E
H-2A R/B 2.1 17:32:39 10° SSE 17:37:52 67° ENE 17:42:58 10° N
ARGOS Delta rocket 4.1 17:34:32 10° SSE 17:39:45 90° W 17:45:13 10° N
ARGOS 3.2 17:35:11 10° SSE 17:40:29 59° ENE 17:45:47 10° N
STARLINK-1114 3.7 17:36:41 10° NW 17:40:49 76° SW 17:44:21 14° SE
Cosmos 2074 Rocket 4.3 17:37:29 10° N 17:43:34 49° ENE 17:49:37 10° SSE
MOS 1 4.3 17:38:31 10° SSE 17:44:06 68° ENE 17:49:44 10° N
CZ-2C R/B 4.2 17:40:59 10° NNE 17:45:23 38° E 17:49:41 10° SSE
STARLINK-1130 (DARKSAT) 3.8 17:41:39 10° WNW 17:45:46 70° SW 17:49:07 15° SE
Cosmos 1825 Rocket 4.1 17:42:55 10° N 17:47:01 37° ENE 17:50:19 14° SE
Cosmos 1758 4.2 17:45:01 10° SSW 17:49:02 54° W 17:53:03 10° N
Cosmos 1726 2.2 17:45:30 10° S 17:49:07 51° E 17:52:45 10° NNE
Cosmos 1437 3.3 17:46:25 10° N 17:49:14 34° ENE 17:50:35 22° SE
Cosmos 1603 3.6 17:43:50 10° SSW 17:49:27 76° ESE 17:55:04 10° NNE
Meteor 1-21 Rocket 4.1 17:44:33 10° N 17:50:07 74° E 17:55:38 10° SSE
STARLINK-1084 3.9 17:46:39 10° WNW 17:50:45 63° SW 17:53:55 16° SE
BREEZE-M DEB (TANK) 2.9 17:45:00 10° WSW 17:51:30 59° NNW 17:54:01 10° NE
Abrixas rocket 3.8 17:50:12 10° WNW 17:52:48 27° N 17:55:16 11° NE
Cosmos 2251 Rocket 3.7 17:48:38 10° SSW 17:54:00 82° WNW 17:59:24 10° NNE
Meteor 2-10 4.1 17:49:22 10° S 17:54:43 66° E 18:00:15 10° NNE
STARLINK-1098 4.0 17:51:40 10° WNW 17:55:44 57° SW 17:58:43 17° SSE
NOSS 3-3 (A) 4.0 17:50:44 10° SW 17:56:31 84° NW 18:03:04 10° NE
NOSS 3-3 (C) 4.0 17:50:49 10° SW 17:56:37 85° NW 18:03:10 10° NE
Meteor 1-16 Rocket 4.1 17:52:26 10° S 17:57:40 58° E 18:03:04 10° NNE
Cosmos 1758 Rocket 3.5 17:55:02 10° N 17:59:20 60° E 18:03:04 13° SSE
SL-08 RB Rocket 3.7 17:56:17 11° SSE 18:00:38 65° ENE 18:05:12 10° N
STARLINK-1123 4.2 17:56:40 10° WNW 18:00:42 52° SW 18:03:30 18° SSE
SL-4 R/B 1.5 17:57:52 10° SW 18:01:12 56° SE 18:03:13 22° ENE
DMSP B5D2-2 4.4 17:58:12 10° NNE 18:03:10 43° E 18:08:07 10° S
Aureole 2 Rocket 2.9 18:00:30 10° NNW 18:03:56 57° WSW 18:06:57 12° S
Cosmos 1340 Rocket 3.9 18:04:56 24° E 18:04:56 24° E 18:08:15 10° NE
STARLINK-1097 4.3 18:01:40 10° WNW 18:05:39 47° SW 18:08:17 19° SSE
COSMOS 2455 4.3 18:01:49 10° N 18:06:27 22° NE 18:09:18 16° ENE
Cosmos 1953 Rocket 4.0 18:02:26 10° N 18:06:41 41° ENE 18:08:43 26° SE
Cosmos 1606 Rocket 3.6 18:03:10 10° S 18:07:29 58° E 18:11:52 10° NNE
Cosmos 2228 3.0 18:05:20 10° S 18:09:30 57° E 18:13:46 10° NNE
STARLINK-1099 4.5 18:06:41 10° WNW 18:10:37 43° SW 18:13:04 20° SSE
Cosmos 1328 4.1 18:08:25 10° N 18:12:18 47° ENE 18:13:44 32° SE
ATLAS 5 CENTAUR R/B4.118:18:51NE18:18:51NE18:08:48S
IRIDIUM 104 4.4 18:08:24 10° N 18:13:37 80° W 18:18:49 10° S
Ariane Rocket 4.1 18:12:19 10° S 18:17:09 45° W 18:22:01 10° NNW
Cosmos 1703 3.2 18:17:02 10° N 18:20:58 63° E 18:22:21 37° SSE
ISS -2.8 18:18:06 10° WNW 18:21:18 41° SW 18:22:14 32° S
ATLAS 2AS CENTAUR R/B 3.1 18:14:32 10° NNW 18:21:58 53° NE 18:25:38 28° ESE
USA 234 3.3 18:16:15 10° NE 18:22:42 58° SE 18:29:06 10° SSW
STARLINK-60 4.0 18:21:34 10° SSW 18:23:42 33° S 18:23:42 33° S
Cosmos 1190 Rocket 4.3 18:20:09 10° S 18:25:09 44° ESE 18:30:09 10° NNE
Cosmos 1953 3.8 18:22:02 10° SSW 18:25:43 37° WNW 18:29:28 10° N
Cosmos 2369 Rocket 2.7 18:20:48 10° NNW 18:26:22 57° WSW 18:31:14 13° S
SL-24 R/B - RUBIN 2 4.4 18:21:37 10° S 18:26:46 47° ESE 18:32:37 10° NE
Cosmos 1943 Rocket 3.3 18:23:17 10° NW 18:28:26 40° WSW 18:33:36 10° S
Spot 2 Rocket 4.3 18:28:46 30° E 18:29:34 31° ENE 18:34:03 10° N
Cosmos 1140 Rocket 3.8 18:28:54 32° SE 18:30:30 42° ESE 18:35:22 10° NNE
MOS 1 Rocket 3.5 18:29:14 10° NNE 18:34:36 76° E 18:40:03 10° S
Resurs 1-3 3.5 18:34:49 33° S 18:36:46 87° W 18:41:11 10° NNW
Cosmos 1461 4.1 18:32:54 10° NNW 18:36:55 30° NE 18:37:28 29° ENE
SPOT 3 Rocket 3.8 18:35:56 18° S 18:39:50 69° WSW 18:45:02 10° NNW
Cosmos 1908 3.3 18:37:38 20° SSW 18:40:11 74° W 18:44:05 10° N
Cosmos 2184 Rocket 4.4 18:35:01 10° NNW 18:41:13 64° W 18:47:21 10° S
Meteor 1-11 4.1 18:36:16 10° N 18:42:03 78° E 18:44:37 34° SSE
Cosmos 1943 4.2 18:43:24 10° SW 18:48:50 47° WNW 18:54:20 10° NNE
Cosmos 614 Rocket 4.0 18:44:38 10° SSW 18:49:52 79° WNW 18:55:07 10° NNE
MetOp-B 4.1 18:54:50 54° ESE 18:55:42 62° ENE 19:01:00 10° N
Cosmos 407 Rocket 3.4 18:50:44 10° SSW 18:55:53 84° WNW 19:01:03 10° NNE
Cosmos 1818 4.5 18:52:23 10° SW 18:57:39 49° NW 19:02:57 10° NNE
BREEZE-M DEB (TANK) 3.7 18:54:02 10° WNW 18:58:06 52° NNW 18:58:06 52° NNW
Resurs 01 Rocket 1.7 18:58:18 56° SSW 18:59:05 72° WSW 19:03:31 10° NNW
Cosmos 2058 Rocket 3.2 18:58:59 41° SSW 19:00:31 74° W 19:05:03 10° N
Cosmos 2181 Rocket 4.1 19:00:44 50° ESE 19:01:18 52° E 19:07:18 10° NNE
Aureole 1 Rocket 4.4 18:55:00 10° SSW 19:02:55 75° WNW 19:09:15 10° NNE
Cosmos 2154 Rocket 4.3 18:56:59 10° NNW 19:03:18 68° W 19:07:09 25° S
SPOT 1/Viking Rocket 4.1 19:05:09 42° ENE 19:05:09 42° ENE 19:09:42 10° N
USA 245 4.2 19:05:47 61° E 19:06:16 63° ENE 19:12:20 10° N
ERS-1 Rocket 4.0 19:07:49 32° NE 19:07:49 32° NE 19:11:29 10° N
Cosmos 962 Rocket 4.3 19:02:24 10° N 19:08:36 84° E 19:10:08 54° SSE
SL-8 Rocket 4.0 19:06:40 10° N 19:12:55 61° E 19:13:27 59° ESE
CZ-2C R/B 3.4 19:12:06 10° N 19:17:04 48° WNW 19:22:01 10° SW
Cosmos 1954 Rocket 4.3 19:19:39 54° NE 19:19:39 54° NE 19:23:42 10° NNE
Cosmos 2366 rocket 4.0 19:17:46 10° N 19:23:36 58° ENE 19:23:36 58° ENE
Landsat 7 4.3 19:28:32 55° N 19:28:32 55° N 19:32:17 10° N
APEX 4.4 19:23:47 10° NNW 19:30:10 61° WSW 19:30:44 58° SW
Cosmos 1959 Rocket 4.4 19:27:27 10° N 19:33:39 72° ENE 19:33:39 72° ENE
NOSS 3-4 (A) 4.0 19:33:31 10° NW 19:40:34 65° WSW 19:41:54 56° SSW
NOSS 3-4 (C) 4.0 19:33:37 10° NW 19:40:40 65° WSW 19:41:59 56° SSW
SL-4 R/B 4.4 19:37:56 10° W 19:38:53 16° WNW 19:38:53 16° WNW
SPOT 5 4.4 19:48:27 27° N 19:48:27 27° N 19:50:27 10° N
COSMOS 2455 3.0 19:47:01 10° NNW 19:52:27 70° WNW 19:52:27 70° WNW
ATLAS 5 CENTAUR R/B 3.8 20:00:11 20° N 20:00:11 20° N 20:01:54 10° NNE
CZ-4C R/B 4.4 19:57:24 10° NNW 20:02:58 25° NE 20:04:44 23° NE
USA 234 4.0 19:59:22 10° NE 20:05:36 49° NNW 20:11:50 10° WSW
BREEZE M DEB (TANK) 3.8 20:03:35 10° W 20:07:34 67° NNW 20:20:59 10° ENE
Terra 3.5 20:11:52 29° N 20:11:52 29° N 20:14:11 10° N
ATLAS 2AS CENTAUR R/B 3.7 20:06:02 10° NW 20:12:39 37° WSW 20:13:05 36° WSW
Cosmos 1697 Rocket 4.3 20:48:21 10° NNW 20:51:12 30° N 20:51:12 30° N
Cosmos 1980 Rocket 4.2 21:16:15 10° NNW 21:18:31 24° N 21:18:31 24° N
Cosmos 2082 Rocket 4.4 21:48:08 19° NNE 21:48:08 19° NNE 21:49:44 10° NNE
CZ-4C R/B 3.8 21:45:18 10° NNW 21:49:54 44° NNW 21:49:54 44° NNW
SL-16 R/B 4.1 22:58:10 29° NE 22:58:10 29° NE 23:02:20 10° N
Cosmos 2360 Rocket 4.4 22:53:13 10° NNW 22:55:09 21° N 22:55:09 21° N
Cosmos 2333 Rocket 4.3 22:59:04 10° N 23:02:28 21° NE 23:02:28 21° NE
Resurs 1-4 Rocket 4.4 23:09:32 10° NE 23:11:12 18° NE 23:11:12 18° NE
CZ-2D R/B 4.1 23:24:47 10° NNE 23:27:17 25° NE 23:27:17 25° NE
